Regional Weather Roundup
Issued by NWS Bismarck, ND

Home | Current Version | Previous Version | Text Only | Print | Product List | Glossary On
Versions: 1 2 3 4 5 6 7 8 9 10 11 12 13 14 15 16 17 18 19 20 21 22 23 24 25 26 27 28 29 30 31 32 33 34 35 36 37 38 39 40 41 42 43 44 45 46 47 48 49 50
000
ASUS43 KBIS 270401
RWRBIS

NWR BROADCAST TEXT
NATIONAL WEATHER SERVICE BISMARCK ND
1000 PM CST THU FEB 26 2015

NOTE: "FAIR" INDICATES FEW OR NO CLOUDS BELOW 12,000 FEET WITH NO
SIGNIFICANT WEATHER AND/OR OBSTRUCTIONS TO VISIBILITY.


CITY           SKY/WX    TMP DP  RH WIND       PRES   REMARKS
WILLISTON      PTCLDY    -9 -14  78 CALM      30.46F
MINOT          CLEAR     -7 -14  71 SW8       30.47F WCI -23
MINOT AFB      NOT AVBL
BISMARCK       CLEAR      0  -8  69 NW3       30.52S
DICKINSON      CLEAR     -3 -10  72 S6        30.39F WCI -15
GARRISON         N/A    -10 -13  86 CALM      30.47F
HETTINGER ARPT CLEAR     -6 -11  79 CALM      30.42F
JAMESTOWN      CLEAR     -8 -14  74 W7        30.47F WCI -23
CARRINGTON     FAIR      -4  -8  84 MISG      30.47F
CROSBY         FAIR     -13 -18  77 SW7       30.45F WCI -29
HAZEN          MOCLDY    -8 -15  71 S3        30.50F
OAKES            N/A     -4  -9  77 NW6       30.51S WCI -16
$$

CITY           SKY/WX    TMP DP  RH WIND       PRES   REMARKS
GRAND FORKS    CLEAR     -7 -12  79 W7        30.50F WCI -21
GRAND FORKS AF CLEAR     -4 -12  71 NW8       30.50S WCI -19
DEVILS LAKE    PTCLDY   N/A N/A N/A MISG        N/A
FARGO          FAIR      -2 -10  69 W9        30.52S WCI -18
GWINNER        CLEAR     -4 -13  65 W8        30.52S WCI -19
$$

CITY           SKY/WX    TMP DP  RH WIND       PRES   REMARKS
ABERDEEN       CLEAR    -10 -15  78 W6        30.55S WCI -23
MOBRIDGE       CLEAR     -5 -11  75 CALM      30.48S
BUFFALO          N/A      2  -7  66 SE6       30.30F WCI  -9
RAPID CITY     CLEAR     -4 -12  68 NW6       30.38S WCI -16
GLASGOW        CLEAR      4  -5  66 E10       30.36F WCI -11
SIDNEY         CLEAR      1  -6  71 CALM      30.47F
WOLF POINT     CLEAR      5  -3  69 CALM      30.42F
GLENDIVE       CLEAR      9  -2  61 SE3       30.39F
MILES CITY     CLEAR      2  -3  80 SE7       30.37F WCI -11
BAKER          CLEAR     -2  -7  79 CALM      30.37F
$$

CITY           SKY/WX    TMP DP  RH WIND       PRES   REMARKS
BILLINGS       CLEAR      8   0  69 E5        30.22F WCI   0
GREAT FALLS    CLEAR      7   2  80 E6        30.07F WCI  -3
$$




USA.gov is the U.S. government's official web portal to all federal, state and local government web resources and services.